User: anonymous   Login
Location: Unspecified
(0.0000°N, 0.0000°E)
Time: 14:19:03
(UTC+00:00)
Language:

TRACE - Orbit

View from above orbital plane
View from above orbital plane
View from above satellite
View from above satellite

Ground track
Ground track

The orbit data is extracted from the following two-line orbital elements,

1 25280U 98020A   18114.45349349 +.00000512 +00000-0 +32797-4 0  9992
2 25280 097.4922 309.5762 0024586 040.8994 319.4076 15.12666610097171
Epoch (UTC): 24 April 2018 10:53:01
Eccentricity: 0.0024586
inclination: 97.4922°
perigee height: 511 km
apogee height: 545 km
right ascension of ascending node: 309.5762°
argument of perigee: 40.8994°
revolutions per day: 15.12666610
mean anomaly at epoch: 319.4076°
orbit number at epoch: 9717

The dashed part of the orbit path shows where the satellite is in the earth's shadow,  

DLR